Watford City, ND

11:45 AM CST on December 18, 2017 (GMT -0600)
Watford City

Weather History for KS25 - February, 2013

Change the Weather History Date:

Sunday, February 24, 2013

  Actual Average (KISN) Record (KISN)
Temperature  
Mean Temperature 26 °F -  
Max Temperature 32 °F 32 °F 58 °F (1958)
Min Temperature 19 °F 10 °F -35 °F (2003)
Degree Days  
Heating Degree Days 38    
Moisture  
Dew Point 22 °F    
Average Humidity 79    
Maximum Humidity 93    
Minimum Humidity 64    
Precipitation  
Precipitation 0.00 in - - ()
Sea Level Pressure  
Sea Level Pressure 29.95 in    
Wind  
Wind Speed 7 mph (WNW)    
Max Wind Speed 18 mph    
Max Gust Speed 23 mph    
Visibility 10 miles    
Events      
Averages and records for this station are not official NWS values.
T = Trace of Precipitation, MM = Missing Value Source: NWS Daily Summary

Daily Weather History Graph

Daily Weather History Graph

Search for Another Location

Airport or City:

Trip Planner

Search our weather history database for the weather conditions in past years. The results will help you decide how hot, cold, wet, or windy it might be!

Date:

Astronomy

Feb. 24, 2013 Rise Set
Actual Time 7:42 AM CST 6:30 PM CST
Civil Twilight 7:11 AM CST 7:01 PM CST
Nautical Twilight 6:35 AM CST 7:37 PM CST
Astronomical Twilight 5:59 AM CST 8:13 PM CST
Moon 5:44 PM CST (2/24) 6:42 AM CST (2/24)
Length of Visible Light 11h 50m
Length of Day
10h 47m
Waxing Gibbous, 99% of the Moon is Illuminated
Feb 24
Waxing Gibbous
Feb 25
Full
Mar 4
Last Quarter
Mar 11
New
Mar 19
First Quarter

Hourly Weather History & Observations

Time (CST) Temp. Windchill Dew Point Humidity Pressure Visibility Wind Dir Wind Speed Gust Speed Precip Events Conditions
12:15 AM 32.0 °F - 26.6 °F 80% 29.77 in 10.0 mi Calm Calm - N/A   Clear
12:35 AM 32.0 °F 26.4 °F 26.6 °F 80% 29.78 in 10.0 mi SW 5.8 mph - N/A   Clear
12:55 AM 32.0 °F 27.5 °F 26.6 °F 80% 29.78 in 10.0 mi SW 4.6 mph - N/A   Clear
1:15 AM 30.2 °F 24.3 °F 26.6 °F 86% 29.79 in 10.0 mi WSW 5.8 mph - N/A   Clear
1:35 AM 30.2 °F 25.4 °F 26.6 °F 86% 29.80 in 10.0 mi West 4.6 mph - N/A   Clear
1:55 AM 32.0 °F 27.5 °F 26.6 °F 80% 29.81 in 10.0 mi WSW 4.6 mph - N/A   Clear
2:15 AM 30.2 °F 25.4 °F 26.6 °F 86% 29.82 in 10.0 mi WSW 4.6 mph - N/A   Clear
2:35 AM 30.2 °F 24.3 °F 26.6 °F 86% 29.82 in 10.0 mi WSW 5.8 mph - N/A   Partly Cloudy
2:55 AM 28.4 °F 23.3 °F 26.6 °F 93% 29.83 in 10.0 mi West 4.6 mph - N/A   Clear
3:15 AM 32.0 °F 24.8 °F 26.6 °F 80% 29.83 in 10.0 mi WNW 8.1 mph - N/A   Clear
3:35 AM 32.0 °F 24.2 °F 26.6 °F 80% 29.84 in 10.0 mi WNW 9.2 mph - N/A   Clear
3:55 AM 32.0 °F 23.0 °F 26.6 °F 80% 29.84 in 10.0 mi West 11.5 mph - N/A   Clear
4:15 AM 32.0 °F 23.0 °F 26.6 °F 80% 29.85 in 10.0 mi WNW 11.5 mph - N/A   Clear
4:35 AM 30.2 °F 19.8 °F 26.6 °F 86% 29.86 in 10.0 mi NW 13.8 mph - N/A   Clear
4:55 AM 28.4 °F 19.1 °F 24.8 °F 86% 29.87 in 10.0 mi NW 10.4 mph - N/A   Clear
5:15 AM 28.4 °F 19.7 °F 24.8 °F 86% 29.87 in 10.0 mi NNW 9.2 mph - N/A   Partly Cloudy
5:35 AM 26.6 °F 16.8 °F 24.8 °F 93% 29.88 in 10.0 mi NW 10.4 mph - N/A   Mostly Cloudy
5:55 AM 26.6 °F 15.2 °F 23.0 °F 86% 29.90 in 10.0 mi NW 13.8 mph - N/A   Mostly Cloudy
6:15 AM 24.8 °F 14.0 °F 23.0 °F 93% 29.90 in 10.0 mi NNW 11.5 mph - N/A   Mostly Cloudy
6:35 AM 24.8 °F 14.6 °F 23.0 °F 93% 29.91 in 10.0 mi NW 10.4 mph - N/A   Partly Cloudy
6:55 AM 24.8 °F 15.3 °F 21.2 °F 86% 29.92 in 10.0 mi NW 9.2 mph - N/A   Partly Cloudy
7:15 AM 24.8 °F 15.3 °F 21.2 °F 86% 29.93 in 10.0 mi NW 9.2 mph - N/A   Clear
7:35 AM 24.8 °F 14.6 °F 19.4 °F 80% 29.94 in 10.0 mi NW 10.4 mph - N/A   Partly Cloudy
7:55 AM 24.8 °F 15.3 °F 19.4 °F 80% 29.95 in 10.0 mi NW 9.2 mph - N/A   Partly Cloudy
8:15 AM 23.0 °F 13.1 °F 19.4 °F 86% 29.96 in 10.0 mi NW 9.2 mph - N/A   Clear
8:35 AM 23.0 °F 13.9 °F 19.4 °F 86% 29.97 in 10.0 mi NW 8.1 mph - N/A   Clear
8:55 AM 23.0 °F 12.4 °F 19.4 °F 86% 29.98 in 10.0 mi NW 10.4 mph - N/A   Partly Cloudy
9:15 AM 23.0 °F 13.1 °F 19.4 °F 86% 29.98 in 10.0 mi NW 9.2 mph - N/A   Partly Cloudy
9:35 AM 24.8 °F 15.3 °F 19.4 °F 80% 29.99 in 10.0 mi NW 9.2 mph - N/A   Clear
9:55 AM 24.8 °F 16.1 °F 19.4 °F 80% 30.00 in 10.0 mi NW 8.1 mph - N/A   Clear
10:15 AM 24.8 °F 14.0 °F 19.4 °F 80% 30.00 in 10.0 mi WNW 11.5 mph - N/A   Clear
10:35 AM 24.8 °F 14.6 °F 19.4 °F 80% 30.01 in 10.0 mi NW 10.4 mph - N/A   Clear
10:55 AM 26.6 °F 19.1 °F 21.2 °F 80% 30.01 in 10.0 mi WNW 6.9 mph - N/A   Clear
11:15 AM 28.4 °F 18.5 °F 23.0 °F 80% 30.01 in 10.0 mi NW 11.5 mph - N/A   Clear
11:35 AM 28.4 °F 19.1 °F 23.0 °F 80% 30.02 in 10.0 mi WNW 10.4 mph - N/A   Clear
11:55 AM 28.4 °F 18.5 °F 23.0 °F 80% 30.01 in 10.0 mi NW 11.5 mph - N/A   Clear
12:15 PM 30.2 °F 20.2 °F 23.0 °F 75% 30.01 in 10.0 mi NW 12.7 mph - N/A   Clear
12:35 PM 30.2 °F 19.3 °F 23.0 °F 75% 30.01 in 10.0 mi NW 15.0 mph - N/A   Clear
12:55 PM 32.0 °F 22.5 °F 23.0 °F 69% 30.01 in 10.0 mi NW 12.7 mph - N/A   Clear
1:15 PM 32.0 °F 21.6 °F 23.0 °F 69% 30.01 in 10.0 mi NW 15.0 mph 20.7 mph N/A   Clear
1:35 PM 32.0 °F 22.1 °F 23.0 °F 69% 30.01 in 10.0 mi NW 13.8 mph 18.4 mph N/A   Clear
1:55 PM 32.0 °F 20.5 °F 23.0 °F 69% 30.00 in 10.0 mi NW 18.4 mph 23.0 mph N/A   Clear
2:15 PM 32.0 °F 22.1 °F 23.0 °F 69% 30.01 in 10.0 mi NNW 13.8 mph 18.4 mph N/A   Clear
2:35 PM 32.0 °F 23.0 °F 23.0 °F 69% 30.01 in 10.0 mi NW 11.5 mph - N/A   Clear
2:55 PM 32.0 °F 23.0 °F 23.0 °F 69% 30.00 in 10.0 mi NW 11.5 mph - N/A   Clear
3:15 PM 32.0 °F 23.0 °F 23.0 °F 69% 30.00 in 10.0 mi WNW 11.5 mph - N/A   Clear
3:35 PM 32.0 °F 23.0 °F 21.2 °F 64% 30.00 in 10.0 mi WNW 11.5 mph - N/A   Clear
3:55 PM 32.0 °F 23.6 °F 21.2 °F 64% 30.01 in 10.0 mi WNW 10.4 mph - N/A   Clear
4:15 PM 32.0 °F 24.2 °F 23.0 °F 69% 30.01 in 10.0 mi NW 9.2 mph - N/A   Clear
4:35 PM 32.0 °F 24.2 °F 23.0 °F 69% 30.01 in 10.0 mi WNW 9.2 mph - N/A   Clear
4:55 PM 32.0 °F 24.2 °F 21.2 °F 64% 30.01 in 10.0 mi WNW 9.2 mph - N/A   Clear
5:15 PM 32.0 °F 25.6 °F 23.0 °F 69% 30.01 in 10.0 mi West 6.9 mph - N/A   Clear
5:35 PM 32.0 °F 25.6 °F 23.0 °F 69% 30.02 in 10.0 mi WNW 6.9 mph - N/A   Clear
5:55 PM 32.0 °F 27.5 °F 21.2 °F 64% 30.02 in 10.0 mi West 4.6 mph - N/A   Clear
6:15 PM 32.0 °F 28.7 °F 23.0 °F 69% 30.01 in 10.0 mi SW 3.5 mph - N/A   Clear
6:35 PM 32.0 °F 27.5 °F 23.0 °F 69% 30.01 in 10.0 mi SW 4.6 mph - N/A   Clear
6:55 PM 28.4 °F 23.3 °F 21.2 °F 74% 30.02 in 10.0 mi WSW 4.6 mph - N/A   Clear
7:15 PM 28.4 °F 22.2 °F 23.0 °F 80% 30.02 in 10.0 mi SW 5.8 mph - N/A   Clear
7:35 PM 26.6 °F 20.0 °F 23.0 °F 86% 30.02 in 10.0 mi SSW 5.8 mph - N/A   Clear
7:55 PM 26.6 °F 21.2 °F 21.2 °F 80% 30.02 in 10.0 mi SSW 4.6 mph - N/A   Clear
8:15 PM 24.8 °F 17.9 °F 21.2 °F 86% 30.02 in 10.0 mi SW 5.8 mph - N/A   Clear
8:35 PM 24.8 °F 19.1 °F 19.4 °F 80% 30.02 in 10.0 mi SW 4.6 mph - N/A   Clear
8:55 PM 23.0 °F 15.8 °F 19.4 °F 86% 30.02 in 10.0 mi SSW 5.8 mph - N/A   Clear
9:15 PM 23.0 °F 18.4 °F 19.4 °F 86% 30.02 in 10.0 mi SW 3.5 mph - N/A   Clear
9:35 PM 23.0 °F 17.0 °F 19.4 °F 86% 30.02 in 10.0 mi SW 4.6 mph - N/A   Clear
9:55 PM 23.0 °F 18.4 °F 19.4 °F 86% 30.01 in 10.0 mi SW 3.5 mph - N/A   Clear
10:15 PM 23.0 °F - 19.4 °F 86% 30.00 in 10.0 mi North - - N/A   Clear
10:35 PM 24.8 °F - 19.4 °F 80% 29.99 in 10.0 mi North - - N/A   Clear
10:55 PM 23.0 °F 17.0 °F 17.6 °F 80% 29.99 in 10.0 mi SW 4.6 mph - N/A   Clear
11:15 PM 23.0 °F 15.8 °F 17.6 °F 80% 29.99 in 10.0 mi WSW 5.8 mph - N/A   Clear
11:35 PM 21.2 °F 16.4 °F 17.6 °F 86% 29.98 in 10.0 mi SW 3.5 mph - N/A   Clear
11:55 PM 19.4 °F - 15.8 °F 86% 29.97 in 10.0 mi Calm Calm - N/A   Clear